Seldovia, AK

9:10 AM AKDT on October 19, 2017 (GMT -0800)
Seldovia

Weather History for PASO - March, 2014

Change the Weather History Date:

Friday, March 14, 2014

  Actual Average (PAHO) Record (PAHO)
Temperature  
Mean Temperature 26 °F -  
Max Temperature 37 °F 36 °F 47 °F (1944)
Min Temperature 15 °F 21 °F -9 °F (1961)
Degree Days  
Heating Degree Days 39    
Moisture  
Dew Point 20 °F    
Average Humidity 87    
Maximum Humidity 100    
Minimum Humidity 73    
Precipitation  
Precipitation 0.73 in - - ()
Sea Level Pressure  
Sea Level Pressure 29.17 in    
Wind  
Wind Speed 7 mph (South)    
Max Wind Speed 17 mph    
Max Gust Speed 30 mph    
Visibility 3 miles    
Events Fog , Rain , Snow    
Averages and records for this station are not official NWS values.
T = Trace of Precipitation, MM = Missing Value Source: NWS Daily Summary

Daily Weather History Graph

Daily Weather History Graph

Search for Another Location

Airport or City:

Trip Planner

Search our weather history database for the weather conditions in past years. The results will help you decide how hot, cold, wet, or windy it might be!

Date:

Astronomy

Mar. 14, 2014 Rise Set
Actual Time 8:25 AM AKDT 8:07 PM AKDT
Civil Twilight 7:44 AM AKDT 8:48 PM AKDT
Nautical Twilight 6:56 AM AKDT 9:36 PM AKDT
Astronomical Twilight 6:06 AM AKDT 10:27 PM AKDT
Moon 6:25 PM AKDT (3/14) 7:30 AM AKDT (3/14)
Length of Visible Light 13h 03m
Length of Day
11h 42m
Waxing Gibbous, 97% of the Moon is Illuminated
Mar 14
Waxing Gibbous
Mar 16
Full
Mar 23
Last Quarter
Mar 30
New
Apr 7
First Quarter

Hourly Weather History & Observations

Time (AKDT) Temp. Windchill Dew Point Humidity Pressure Visibility Wind Dir Wind Speed Gust Speed Precip Events Conditions
12:15 AM 37.4 °F 30.8 °F 35.6 °F 93% 28.87 in 7.0 mi NNE 9.2 mph - 0.01 in Rain Light Rain
12:53 AM 37.0 °F 31.0 °F 36.0 °F 96% 28.87 in 10.0 mi NNE 8.1 mph - 0.02 in Rain Light Rain
1:53 AM 37.0 °F 32.4 °F 35.1 °F 93% 28.89 in 10.0 mi Variable 5.8 mph - 0.01 in Rain Light Rain
2:53 AM 34.0 °F - 34.0 °F 100% 28.88 in 10.0 mi Calm Calm - 0.00 in   Overcast
4:23 AM 37.4 °F 31.4 °F 35.6 °F 93% 28.85 in 8.0 mi NNE 8.1 mph - 0.01 in Rain Light Rain
4:53 AM 37.0 °F 32.4 °F 35.1 °F 93% 28.83 in 9.0 mi North 5.8 mph - 0.03 in Rain Light Rain
5:08 AM 37.4 °F 32.1 °F 35.6 °F 93% 28.82 in 10.0 mi North 6.9 mph - 0.01 in Rain Light Rain
5:37 AM 37.4 °F 33.8 °F 35.6 °F 93% 28.81 in 9.0 mi North 4.6 mph - 0.02 in Rain Light Rain
5:53 AM 36.0 °F - 36.0 °F 100% 28.81 in 7.0 mi Calm Calm - 0.03 in Rain Light Rain
6:53 AM 35.1 °F - 35.1 °F 100% 28.77 in 5.0 mi Calm Calm - 0.06 in Rain Light Rain
7:53 AM 36.0 °F 31.1 °F 34.0 °F 93% 28.75 in 3.0 mi North 5.8 mph - 0.15 in Rain Heavy Rain
8:08 AM 35.6 °F 31.7 °F 33.8 °F 93% 28.75 in 3.0 mi North 4.6 mph - 0.05 in Rain Heavy Rain
8:53 AM 34.0 °F 26.0 °F 33.1 °F 96% 28.76 in 6.0 mi North 10.4 mph - 0.16 in Rain Rain
9:19 AM 33.8 °F 27.7 °F 33.8 °F 100% 28.75 in 4.0 mi North 6.9 mph - 0.03 in Snow Light Snow
9:53 AM 34.0 °F 26.6 °F 33.1 °F 96% 28.76 in 5.0 mi North 9.2 mph - 0.07 in Snow Light Snow
10:33 AM 32.0 °F 25.6 °F 32.0 °F 100% 28.80 in 0.8 mi Variable 6.9 mph 16.1 mph 0.03 in Snow Light Snow
10:45 AM 28.4 °F 19.1 °F 28.4 °F 100% 28.82 in 0.5 mi South 10.4 mph 19.6 mph 0.04 in Fog , Snow Snow
10:51 AM 28.4 °F 19.1 °F 28.4 °F 100% 28.83 in 0.2 mi South 10.4 mph 17.3 mph 0.05 in Fog , Snow Snow
10:53 AM 28.0 °F 18.6 °F 28.0 °F 100% 28.84 in 0.2 mi South 10.4 mph 17.3 mph 0.05 in Fog , Snow Snow
11:43 AM 24.8 °F 15.3 °F 21.2 °F 86% 28.92 in 0.5 mi South 9.2 mph 19.6 mph 0.06 in Fog , Snow Light Snow
11:53 AM 23.0 °F 11.7 °F 21.0 °F 92% 28.94 in 0.5 mi South 11.5 mph 24.2 mph 0.06 in Fog , Snow Light Snow
12:28 PM 21.2 °F 6.8 °F 17.6 °F 86% 28.99 in 0.5 mi SSW 17.3 mph 27.6 mph 0.01 in Fog , Snow Light Snow
12:53 PM 21.0 °F 7.6 °F 17.1 °F 85% 29.04 in 0.5 mi SSW 15.0 mph 29.9 mph 0.02 in Fog , Snow Snow
1:20 PM 21.2 °F 10.1 °F 17.6 °F 86% 29.08 in 0.5 mi SSW 10.4 mph 21.9 mph 0.01 in Fog , Snow Snow
1:53 PM 19.9 °F 10.1 °F 16.0 °F 85% 29.12 in 0.8 mi SSW 8.1 mph 24.2 mph 0.01 in Snow Light Snow
2:02 PM 19.4 °F 7.2 °F 15.8 °F 86% 29.14 in 1.0 mi SSW 11.5 mph 24.2 mph 0.00 in Snow Light Snow
2:10 PM 19.4 °F 7.9 °F 15.8 °F 86% 29.14 in 0.8 mi SSW 10.4 mph 17.3 mph 0.00 in Snow Light Snow
2:16 PM 19.4 °F 9.5 °F 14.0 °F 80% 29.15 in 1.0 mi SSW 8.1 mph 21.9 mph 0.00 in Snow Light Snow
2:53 PM 19.9 °F 8.6 °F 15.1 °F 81% 29.20 in 1.2 mi South 10.4 mph 19.6 mph 0.00 in Snow Light Snow
3:53 PM 19.0 °F 6.8 °F 14.0 °F 81% 29.26 in 1.2 mi South 11.5 mph 19.6 mph 0.01 in Snow Light Snow
4:19 PM 19.4 °F 8.6 °F 15.8 °F 86% 29.27 in 0.8 mi South 9.2 mph 18.4 mph 0.00 in Snow Light Snow
4:53 PM 18.0 °F 12.7 °F 14.0 °F 84% 29.29 in 0.5 mi Variable 3.5 mph - 0.01 in Fog , Snow Snow
5:53 PM 18.0 °F 11.1 °F 14.0 °F 84% 29.34 in 0.8 mi South 4.6 mph - 0.02 in Snow Light Snow
6:07 PM 17.6 °F 8.2 °F 12.2 °F 79% 29.34 in 1.0 mi South 6.9 mph - 0.00 in Snow Light Snow
6:29 PM 17.6 °F 12.3 °F 12.2 °F 79% 29.36 in 1.0 mi Variable 3.5 mph - 0.00 in Snow Light Snow
6:53 PM 17.1 °F 5.0 °F 12.0 °F 81% 29.38 in 0.8 mi SSW 10.4 mph - 0.00 in Snow Light Snow
7:04 PM 17.6 °F 9.3 °F 12.2 °F 79% 29.38 in 1.2 mi Variable 5.8 mph 17.3 mph 0.00 in Snow Light Snow
7:28 PM 17.6 °F 10.7 °F 12.2 °F 79% 29.40 in 2.0 mi Variable 4.6 mph - 0.00 in Snow Light Snow
7:37 PM 17.6 °F 12.3 °F 12.2 °F 79% 29.40 in 1.5 mi South 3.5 mph - 0.00 in Snow Light Snow
7:48 PM 17.6 °F 9.3 °F 12.2 °F 79% 29.41 in 2.5 mi Variable 5.8 mph - 0.00 in Snow Light Snow
7:53 PM 17.1 °F 8.7 °F 10.9 °F 77% 29.42 in 2.0 mi South 5.8 mph - 0.00 in Snow Light Snow
8:03 PM 17.6 °F 9.3 °F 10.4 °F 73% 29.42 in 1.8 mi South 5.8 mph - 0.00 in Snow Light Snow
8:32 PM 15.8 °F 8.6 °F 12.2 °F 86% 29.44 in 2.5 mi South 4.6 mph - 0.00 in Snow Light Snow
8:39 PM 17.6 °F 10.7 °F 12.2 °F 79% 29.45 in 4.0 mi South 4.6 mph - 0.00 in Snow Light Snow
8:53 PM 17.1 °F 7.6 °F 10.0 °F 74% 29.46 in 5.0 mi South 6.9 mph - 0.00 in Snow Light Snow
9:14 PM 15.8 °F 8.6 °F 10.4 °F 79% 29.47 in 2.0 mi Variable 4.6 mph 19.6 mph 0.00 in Snow Light Snow
9:30 PM 15.8 °F 8.6 °F 10.4 °F 79% 29.48 in 4.0 mi South 4.6 mph - 0.00 in Snow Light Snow
9:48 PM 17.6 °F 12.3 °F 10.4 °F 73% 29.49 in 4.0 mi South 3.5 mph - 0.00 in Snow Light Snow
9:53 PM 17.1 °F 8.7 °F 10.0 °F 74% 29.49 in 4.0 mi Variable 5.8 mph - 0.00 in Snow Light Snow
10:16 PM 15.8 °F 8.6 °F 10.4 °F 79% 29.51 in 2.5 mi Variable 4.6 mph - 0.00 in Snow Light Snow
10:36 PM 15.8 °F 10.2 °F 10.4 °F 79% 29.52 in 3.0 mi Variable 3.5 mph - 0.00 in Snow Light Snow
10:43 PM 15.8 °F 10.2 °F 10.4 °F 79% 29.53 in 2.0 mi SSE 3.5 mph - 0.01 in Snow Light Snow
10:51 PM 15.8 °F 10.2 °F 12.2 °F 86% 29.53 in 1.8 mi SSE 3.5 mph - 0.01 in Snow Light Snow
10:53 PM 16.0 °F 10.4 °F 12.0 °F 84% 29.54 in 1.8 mi SSE 3.5 mph - 0.01 in Snow Light Snow
11:13 PM 15.8 °F - 12.2 °F 86% 29.55 in 1.0 mi Calm Calm - 0.00 in Snow Light Snow
11:40 PM 15.8 °F - 12.2 °F 86% 29.57 in 2.0 mi Calm Calm - 0.00 in Snow Light Snow
11:53 PM 16.0 °F - 12.9 °F 88% 29.58 in 1.8 mi Calm Calm - 0.01 in Snow Light Snow